TeikyoSat 4
1 49396U 21102B   25293.60072235  .00003575  00000-0  23406-3 0  9991
2 49396  97.3971 327.1867 0013446  43.2800 316.9483 15.08281437216594
Z-Sat
1 49399U 21102E   25293.64527104  .00008276  00000-0  43612-3 0  9992
2 49399  97.3664 331.1896 0017648   8.1786 351.9731 15.15702129217123
KOSEN 1
1 49402U 21102H   25293.54965282  .00013249  00000-0  57475-3 0  9997
2 49402  97.3557 335.5700 0014332 339.1806  20.8845 15.22379079217500
HO-113
1 50466U 21131B   25293.60283267  .00001127  00000-0  36419-3 0  9991
2 50466  98.5073  22.2921 0005289  98.0891 262.0898 14.41001969200600
SNUGLITE 2
1 52899U 22065F   25293.27660508  .00002746  00000-0  53736-3 0  9999
2 52899  98.1879  74.1346 0008482  61.9879 298.2181 14.63609424175894
UmKA 1 (RS40S)
1 57172U 23091G   25293.59960092  .00010488  00000-0  53099-3 0  9998
2 57172  97.5426 348.3122 0012696 229.2707 130.7425 15.17120498127632
CubeBel-2 (EU11S)
1 57175U 23091K   25293.63660771  .00018962  00000-0  82593-3 0  9993
2 57175  97.5425 350.3953 0010269 233.1006 126.9290 15.22209230127779
ENSO
1 58470U 23185J   25292.61518760  .00451160  00000-0  16454-2 0  9996
2 58470  97.3536  13.8274 0005965 277.2761  82.7833 15.87329911105699
SONATE-2
1 59112U 24043Q   25293.54536533  .00036219  00000-0  86528-3 0  9999
2 59112  97.5298  67.9804 0009634   1.1995 358.9273 15.41377081 90778
MO-122
1 60209U 24125G   25293.58245964  .00039195  00000-0  91154-3 0  9995
2 60209  97.2602 144.0639 0017165  23.6282 336.5750 15.42060594 72403
GRBBeta
1 60237U 24128C   25293.51023352  .00006655  00000-0  47719-3 0  9990
2 60237  61.9920 335.6597 0057010  85.2437 275.5162 15.04005648 70184
Curium One
1 60242U 24128H   25293.55668547  .00011898  00000-0  76398-3 0  9991
2 60242  61.9812 331.5427 0056810  81.6993 279.0537 15.07516604 70267
ROBUSTA-3A
1 60243U 24128J   25293.53859402  .00011311  00000-0  73908-3 0  9996
2 60243  61.9887 332.9179 0056598  79.2769 281.4689 15.06928025 70242
CatSat
1 60246U 24125J   25293.58600089  .00041923  00000-0  11730-2 0  9992
2 60246  97.2415 141.7014 0037039 341.8689  18.1231 15.35833303 70352
HYPERVIEW-1G (RS66S)
1 61772U 24199AP  25293.63657611  .00047058  00000-0  10765-2 0  9999
2 61772  97.3289 162.6022 0013908  75.5198 284.7591 15.42568362 97417
AO-123
1 61781U 24199AY  25293.67330997  .00013257  00000-0  44985-3 0  9994
2 61781  97.3317 159.7433 0017100  85.4566 274.8628 15.30497263 97227
ZIMSAT 2
1 61783U 24199BA  25293.66094228  .00119712  00000-0  17251-2 0  9997
2 61783  97.3219 164.7573 0012413  70.2259 290.0333 15.55515850100716
HADES-R (SO-124)
1 62690U 25009CK  25293.51708612  .00122224  00000-0  26919-2 0  9992
2 62690  97.3978  14.7559 0002217 306.7600  53.3445 15.43478413 42531
HYDRA-T
1 62692U 25009CM  25293.46800696  .00123463  00000-0  26582-2 0  9995
2 62692  97.3974  14.8205 0002179 293.8835  66.2185 15.44148857 42532
JINJUSat 1B
1 63210U 25052A   25293.65345039  .00024598  00000-0  10062-2 0  9991
2 63210  97.4227 186.2297 0002881 174.8436 185.2831 15.24327024 33499
NUSHSAT 1
1 63211U 25052B   25293.61323159  .00026788  00000-0  10729-2 0  9990
2 63211  97.4213 186.2524 0002589 179.6960 180.4279 15.25018430 33490
TEVEL2-4
1 63213U 25052D   25293.65942953  .00026569  00000-0  10802-2 0  9994
2 63213  97.4131 185.9542 0001244 187.3956 172.7264 15.24516087 33493
TEVEL2-5
1 63214U 25052E   25293.66276965  .00025991  00000-0  10585-2 0  9995
2 63214  97.4130 185.9504 0001275 188.7225 171.3991 15.24466289 33499
TEVEL2-6
1 63215U 25052F   25293.60280094  .00025944  00000-0  10580-2 0  9991
2 63215  97.4133 185.8815 0001258 190.5329 169.5883 15.24419416 33482
TEVEL2-1
1 63217U 25052H   25293.56934190  .00024695  00000-0  10159-2 0  9995
2 63217  97.4110 185.7021 0000853 227.1641 132.9525 15.24136618 33477
TEVEL2-3
1 63218U 25052J   25293.56914648  .00025149  00000-0  10340-2 0  9999
2 63218  97.4111 185.7050 0000885 230.1190 129.9970 15.24150250 33477
TEVEL2-2
1 63219U 25052K   25293.63576753  .00024883  00000-0  10235-2 0  9996
2 63219  97.4109 185.7674 0000875 229.0067 131.1095 15.24138231 33485
TEVEL2-9
1 63237U 25052AD  25293.61470843  .00023396  00000-0  10021-2 0  9998
2 63237  97.4171 185.5233 0004982 273.4037  86.6629 15.22771274 33458
TEVEL2-7
1 63238U 25052AE  25293.62404349  .00022889  00000-0  98378-3 0  9996
2 63238  97.4174 185.5160 0005039 273.3804  86.6856 15.22658177 33454
TEVEL2-8
1 63239U 25052AF  25293.62872896  .00023657  00000-0  10174-2 0  9994
2 63239  97.4174 185.5080 0005029 273.9336  86.1325 15.22630538 33458
HYDRA-W
1 63490U 25052BL  25293.64112162  .00068503  00000-0  21264-2 0  9999
2 63490  97.4111 187.0047 0005491 260.3501  99.7121 15.33111003 33564
HADES-ICM (SO-125)
1 63492U 25052BN  25293.64952716  .00063379  00000-0  20395-2 0  9998
2 63492  97.4117 186.8594 0006179 267.8909  92.1625 15.31978597 33556
